#timestamp,LO_Frequency,Hit,StdDev 
1620417615.2,286046997.7,N
1620417635.1,286046998.7,N
1620417636.0,286046998.7,N
1620417655.8,286046996.8,N
1620417675.6,286046995.1,N
1620417695.5,286046995.8,N
1620417715.3,286046997.4,N
1620417735.2,286046998.4,N
1620417755.9,286047000.3,N
1620417775.7,286047000.0,N
1620417795.6,286046998.2,N
1620417815.4,286047000.2,N
1620417835.2,286047000.4,N
1620417855.1,286046998.9,N
1620417856.0,286046998.9,N
1620417875.8,286046998.9,N
1620417895.7,286046998.2,N
1620417915.5,286046999.3,N
1620417935.3,286046998.8,N
1620417955.2,286046994.9,Y
1620417975.0,286046999.6,P
1620417975.9,286046999.6,N
1620417995.7,286047002.6,P
1620418015.6,286047000.9,N
1620418035.4,286046998.1,N
1620418055.3,286047001.9,N
1620418075.1,286047004.1,N
1620418076.0,286047004.1,N
1620418095.8,286047001.7,N
1620418115.7,286047004.1,N
1620418135.5,286047001.6,N
1620418155.3,286047002.4,N
1620418175.2,286047001.8,N
1620418195.0,286047000.9,N
1620418195.9,286047000.9,N
1620418215.8,286046998.9,N
1620418235.6,286046995.0,N
1620418255.4,286046998.0,N
1620418275.3,286046999.3,N
1620418295.1,286046998.1,N
1620418315.8,286046999.6,N
1620418335.7,286046994.9,N
1620418355.5,286046995.2,N
1620418375.4,286046996.9,N
1620418395.2,286047001.1,N
1620418415.0,286047001.0,N
1620418415.9,286047001.0,N
1620418435.8,286047002.4,N
1620418455.6,286047002.2,N
1620418475.4,286047001.8,N
1620418495.3,286047002.3,N
1620418515.1,286047000.7,N
1620418535.9,286046999.7,N
1620418555.7,286047002.8,N
1620418575.5,286046999.6,N
1620418595.4,286046999.8,N
1620418615.2,286047003.1,N
1620418635.0,286047001.8,N
1620418635.9,286047001.8,N
1620418655.8,286047002.7,N
1620418675.6,286047003.6,N
1620418695.5,286047003.3,N
1620418715.3,286047003.4,N
1620418735.1,286047003.7,N
1620418755.9,286047001.3,N
1620418775.7,286047002.9,N
1620418795.5,286047005.8,N
1620418815.4,286047005.3,N
1620418835.2,286047004.7,N
1620418855.1,286047003.1,N
1620418856.0,286047003.1,N
1620418875.8,286047000.5,N
1620418895.6,286047002.4,N
1620418915.5,286047002.1,N
1620418935.3,286047000.6,N
1620418955.2,286047000.1,N
1620418975.9,286046999.7,N
1620418995.7,286047002.2,N
1620419015.6,286047001.5,N
1620419035.4,286047001.5,N
1620419055.2,286047001.8,N
1620419075.1,286047001.8,N
1620419076.0,286047001.8,N
1620419095.8,286047000.1,N
1620419115.7,286046999.3,N
1620419135.5,286047001.2,N
1620419155.3,286047001.6,N
1620419175.2,286047004.3,N
1620419195.0,286047002.9,N
1620419195.9,286047002.9,N
1620419215.8,286047002.9,N
1620419235.6,286047002.9,N
1620419255.4,286047003.3,N
1620419275.3,286047002.6,N
1620419295.1,286046998.6,N
1620419315.8,286046998.6,N
1620419335.7,286046998.5,N
1620419355.5,286047000.7,N
1620419375.4,286046998.7,N
1620419395.2,286046998.7,N
1620419415.0,286046998.6,N
1620419415.9,286046998.6,N
1620419435.8,286046997.5,N
1620419455.6,286046999.4,N
1620419475.4,286046999.2,N
1620419495.3,286046997.6,N
1620419515.1,286046995.6,N
1620419535.9,286046997.7,N
1620419555.7,286046997.7,N
1620419575.5,286046994.9,N
1620419595.4,286046997.5,N
1620419615.2,286046996.0,N
1620419635.1,286046997.7,N
1620419636.0,286046997.7,N
1620419655.8,286046997.4,N
1620419675.6,286046997.8,N
1620419695.5,286046996.8,N
1620419715.3,286046996.8,N
1620419735.2,286046997.8,N
1620419755.0,286046995.3,N
1620419755.9,286046995.3,N
1620419775.7,286046995.3,N
1620419795.6,286046994.5,N
1620419815.4,286046994.8,Y
1620419835.3,286046996.3,P
1620419855.1,286046997.7,P
1620419856.0,286046997.7,P
1620419875.8,286046995.2,Y
1620419895.7,286046999.0,P
1620419915.5,286047002.8,P
1620419935.4,286047003.0,N
1620419955.2,286047004.3,N
1620419975.0,286047001.5,N
1620419975.9,286047001.5,N
1620419995.8,286047000.1,N
1620420015.6,286047000.7,N
1620420035.4,286046999.7,N
1620420055.3,286047002.2,N
1620420075.1,286047000.2,N
1620420095.9,286047002.5,N
1620420115.7,286047002.3,N
1620420135.5,286047002.6,N
1620420155.4,286047002.3,N
1620420175.2,286047000.4,N
1620420195.0,286047000.7,N
1620420195.9,286047000.7,N
1620420215.8,286046998.5,N
1620420235.6,286046999.1,N
1620420255.5,286046998.4,N
1620420275.3,286046999.8,N
1620420295.1,286047000.2,N
1620420315.9,286047000.9,N
1620420335.7,286047000.3,N
1620420355.5,286047001.9,N
1620420375.4,286047002.7,N
1620420395.2,286047002.3,N
1620420415.0,286047002.0,N
1620420416.0,286047002.0,N
1620420435.8,286047002.4,N
1620420455.6,286047002.0,N
1620420475.5,286046998.5,N
1620420495.3,286046998.9,N
1620420515.1,286046998.9,N
1620420535.9,286046998.1,N
1620420555.7,286046999.8,N
1620420575.5,286046999.8,N
1620420595.4,286047000.1,N
1620420615.2,286046996.5,N
1620420635.1,286046997.8,N
1620420636.0,286046997.8,N
1620420655.8,286047001.2,N
1620420675.6,286046999.9,N
1620420695.5,286046999.1,N
1620420715.3,286046998.4,N
1620420735.2,286047000.4,N
1620420755.1,286047002.3,N
1620420756.0,286047002.3,N
1620420775.8,286047004.0,N
1620420795.6,286047001.6,N
1620420815.5,286047000.3,N
1620420835.3,286046999.7,N
1620420855.2,286046998.3,N
1620420875.0,286046999.6,N
1620420875.9,286046999.6,N
1620420895.8,286046998.2,N
1620420915.6,286047001.6,N
1620420935.4,286047003.7,N
1620420955.3,286047003.2,N
1620420975.1,286047001.9,N
1620420995.9,286047011.9,Y
1620421015.7,286047000.2,P
1620421035.5,286047002.2,P
1620421055.4,286047001.5,N
1620421075.2,286046999.8,N
1620421095.1,286047001.0,N
1620421096.0,286047001.0,N
1620421115.8,286047000.5,N
1620421135.6,286046999.8,N
1620421155.5,286047000.1,N
1620421175.3,286046998.5,N
1620421195.2,286046998.4,N
